Regional Weather Roundup
Issued by NWS

Home | Current Version | Previous Version | Graphics & Text | Print | Product List | Glossary On
Versions: 1 2 3 4 5 6 7 8 9 10 11 12 13 14 15 16 17 18 19 20 21 22 23 24 25 26 27 28 29 30 31 32 33 34 35 36 37 38 39 40 41 42 43 44 45 46 47 48 49 50
739
ASUS45 KBOU 131007
RWRCO

WEATHER ROUNDUP FOR COLORADO
NATIONAL WEATHER SERVICE DENVER/BOULDER CO
300 AM MST SAT FEB 13 2016

NOTE: "FAIR" INDICATES FEW OR NO CLOUDS BELOW 12000 FEET WITH NO
SIGNIFICANT WEATHER AND/OR OBSTRUCTIONS TO VISIBILITY.

COZ001>005-013-030-031-131100-
...NORTHWEST COLORADO...

CITY           SKY/WX    TMP DP  RH WIND       PRES   REMARKS
CRAIG          FAIR      10   5  80 CALM      30.27S
HAYDEN         FAIR      27  16  63 E14       30.25F WCI  15
MEEKER         FAIR      17  12  80 NE3       30.27S
MOUNT WERNER   NOT AVBL
STEAMBOAT SPGS FAIR      19  17  94 CALM      30.27F
WALDEN         FAIR      34  19  55 S10       30.27S WCI  26
$$

COZ006>008-011-131100-
...WEST CENTRAL VALLEYS...

CITY           SKY/WX    TMP DP  RH WIND       PRES   REMARKS
GRAND JUNCTION FAIR      26  24  92 E3        30.29F
MONTROSE       FAIR      27  22  81 S8        30.31F WCI  19
EAGLE          FAIR      21  19  93 CALM      30.34F
RIFLE          FAIR      23  17  78 CALM      30.31F
DELTA          FAIR      30  26  85 CALM      30.31F
NUCLA          FAIR      30  23  74 E6        30.34F WCI  24
$$

COZ017>023-064>068-131100-
...SOUTHWEST COLORADO...

CITY           SKY/WX    TMP DP  RH WIND       PRES   REMARKS
DURANGO        FAIR      23  19  85 CALM      30.33F
CORTEZ         FAIR      23  19  85 NE6       30.31F WCI  16
PAGOSA SPRINGS FAIR      27  19  73 CALM      30.36F
TELLURIDE      FAIR      35  18  50 SE7       30.40F WCI  29
WOLF CREEK PAS FAIR      28  16  59 SW23      30.49F WCI  14
$$

COZ009-010-012-014-032>034-037-058>063-131100-
...CENTRAL COLORADO...

CITY           SKY/WX    TMP DP  RH WIND       PRES   REMARKS
ASPEN          FAIR      25  17  72 S7        30.30F WCI  17
BUENA VISTA    FAIR      27  22  80 W3        30.29F
COPPER MTN     FAIR      34  12  40 W18G24    30.41F WCI  23
BERTHOUD PASS  FAIR      27  14  59 NW35G43   30.35F WCI   9
COTTONWOOD PAS FAIR      43  14  31 W8        30.34F
GUNNISON       FAIR       0  -4  85 CALM      30.45F
KREMMLING      FAIR       3   0  85 CALM      30.35F
LEADVILLE      FAIR      29  14  53 NE7       30.33F WCI  22
MONARCH PASS   FAIR      28  18  64 W38       30.51F WCI  11
SALIDA         NOT AVBL
SUNLIGHT       FAIR      32  19  59 CALM      30.42F
WILKERSON PASS MOCLDY    28  18  64 SW14G23   30.36F WCI  17
$$

COZ069>075-131100-
...SAN LUIS VALLEY/SANGRE DE CRISTO MOUNTAINS...

CITY           SKY/WX    TMP DP  RH WIND       PRES   REMARKS
ALAMOSA        FAIR      22  19  89 W3        30.33F
LA VETA PASS   FAIR      34  19  55 MISG      30.37F
SAGUACHE       FAIR      28  21  74 NW9       30.36S WCI  20
$$

COZ035-036-038>040-131100-
...NORTHERN COLORADO FRONT RANGE...

CITY           SKY/WX    TMP DP  RH WIND       PRES   REMARKS
DENVER INTL AP FOG       28  27  96 NW7       30.13F VSB 1/16WCI  21
DMNS CITY PARK   N/A     29  29 100 MISG      30.14S
AURORA         FOG       29  29 100 CALM      30.14F VSB 1/4
FRONT RANGE AP FOG       28  28 100 W3        30.14F VSB 1/4
ERIE MUNI ARPT FOG       30  30 100 CALM      30.15F VSB 1/4
BOULDER MUN AP FOG       30  30 100 CALM      30.14F VSB 1/4
CENTENNIAL     MOCLDY    34  29  82 S3        30.13F
BROOMFIELD     FOG       30  30 100 N5        30.14F VSB 1/4 WCI  25
FORT COLLINS   CLOUDY    30  28  93 CALM      30.16F VSB 1/2
LONGMONT       FOG       33  32  98 CALM      30.17F VSB 1/2
$$

COZ041-046-047-076>085-087-088-131100-
...PIKES PEAK/PALMER DIVIDE AND SOUTHERN FOOTHILLS...

CITY           SKY/WX    TMP DP  RH WIND       PRES   REMARKS
COLO. SPRINGS  MOCLDY    32  27  81 NW5       30.19F WCI  27
A. F. ACADEMY  FAIR      28  26  89 N6        30.18F WCI  22
SCHRIEVER AFB  FAIR      31  27  83 W8        30.19F WCI  24
ELLICOTT       FAIR     N/A N/A N/A CALM      30.17F
FALCON         FAIR      32  26  77 CALM      30.19F
FORT CARSON    FAIR      31  28  86 S1        30.17F
LIMON          CLOUDY    27  27 100 S10       30.18F FOG     WCI  17
MONUMENT HILL  FAIR      45  23  42 SW18      30.18F
TRINIDAD       FAIR      45  21  38 SW8       30.19F
$$

COZ042>045-048>051-090-091-131100-
...NORTHEAST COLORADO...

CITY           SKY/WX    TMP DP  RH WIND       PRES   REMARKS
GREELEY ARPT   CLOUDY    30  28  93 CALM      30.17F
AKRON          CLOUDY    29  29 100 S18       30.16F WCI  16
BURLINGTON     FOG       26  24  92 S17       30.25F VSB 3/4 WCI  13
WRAY           CLOUDY   N/A N/A N/A S12G21    30.26F
STERLING       CLOUDY    32  32 100 S12       30.17F WCI  23
HOLYOKE        CLOUDY    32  30  93 S16       30.24F FOG     WCI  21
FORT MORGAN    FAIR      30  29  96 SE7       30.15F WCI  23
$$

COZ086-089-092>099-131100-
...SOUTHEAST COLORADO...

CITY           SKY/WX    TMP DP  RH WIND       PRES   REMARKS
PUEBLO         FAIR      30  25  81 SE5       30.22F WCI  25
LA JUNTA       CLOUDY    29  26  89 N6        30.22F WCI  23
LAMAR          CLOUDY    29  27  92 SE10      30.24F WCI  20
SPRINGFIELD      N/A     25  25 100 S16       30.22F WCI  12
$$




USA.gov is the U.S. government's official web portal to all federal, state and local government web resources and services.